Regional Weather Roundup
Issued by NWS Charleston, WV

Current Version | Previous Version | Text Only | Print | Product List | Glossary On
Versions: 1 2 3 4 5 6 7 8 9 10 11 12 13 14 15 16 17 18 19 20 21 22 23 24 25 26 27
000
ASUS41 KRLX 240010
RWRRLX
Regional Weather Roundup
National Weather Service Charleston WV
800 PM EDT MON MAY 23 2022

Note: "fair" indicates few or no clouds below 12,000 feet with no
significant weather and/or obstructions to visibility.

WVZ003-240100-
Northern Panhandle of West Virginia

CITY           SKY/WX    TMP DP  RH WIND       PRES   REMARKS
WHEELING       CLOUDY    59  48  67 NE7       30.19S
$$

WVZ009-240100-
Northwest West Virginia

CITY           SKY/WX    TMP DP  RH WIND       PRES   REMARKS
PARKERSBURG    CLOUDY    61  50  67 NE7       30.17S
$$

WVZ006-240100-
Western West Virginia

CITY           SKY/WX    TMP DP  RH WIND       PRES   REMARKS
HUNTINGTON     CLOUDY    58  52  80 NE7       30.13F
POINT PLEASANT CLOUDY    62  53  73 NE6       30.16F
$$

WVZ015-240100-
West Central West Virginia

CITY           SKY/WX    TMP DP  RH WIND       PRES   REMARKS
CHARLESTON     LGT RAIN  57  55  93 NE8G20    30.11S
$$

WVZ509-031-039-240100-
North Central West Virginia

CITY           SKY/WX    TMP DP  RH WIND       PRES   REMARKS
MORGANTOWN     CLOUDY    58  55  90 N8        30.19F
CLARKSBURG     LGT RAIN  58  56  93 N9        30.17R
BUCKHANNON     LGT RAIN  55  55 100 VRB6G12   30.14F
$$

WVZ515-516-025-034-042-507-240100-
Southern West Virginia

CITY           SKY/WX    TMP DP  RH WIND       PRES   REMARKS
BECKLEY        LGT RAIN  61  59  93 E8        30.13S
LOGAN          CLOUDY    57  57 100 N7        30.10R FOG
PINEVILLE      DRIZZLE  N/A N/A N/A MISG      30.13S
BLUEFIELD      RAIN      58  58 100 E6        30.14R FOG
LEWISBURG      RAIN      58  58  97 E5        30.17S
$$

WVZ525-526-240100-
Northern Mountains of West Virginia

CITY           SKY/WX    TMP DP  RH WIND       PRES   REMARKS
ELKINS         LGT RAIN  55  54  96 CALM      30.18S FOG
$$

WVZ502-504-052-240100-
Eastern Panhandle of West Virginia

CITY           SKY/WX    TMP DP  RH WIND       PRES   REMARKS
PETERSBURG     RAIN      59  59 100 CALM      30.24R
CUMBERLAND     LGT RAIN  61  49  65 N3        30.26R
MARTINSBURG    LGT RAIN  62  51  67 NE3       30.21R
$$

OHZ075-083-KYZ101-240100-
Southeast Ohio/Northeast Kentucky

CITY           SKY/WX    TMP DP  RH WIND       PRES   REMARKS
ATHENS         CLOUDY    62  53  73 NE6       30.15F
JACKSON        MOCLDY    63  54  72 NE5       30.16F
ASHLAND        CLOUDY    61  58  90 CALM      30.15S
$$



USA.gov is the U.S. government's official web portal to all federal, state and local government web resources and services.